Weather History for Iron Mountain, MI

Change the Weather History Date:

Sunday, March 3, 2013

  Actual Average Record
Temperature  
Mean Temperature 14 °F -  
Max Temperature 30 °F 35 °F 58 °F (1993)
Min Temperature -2 °F 12 °F -22 °F (1943)
Degree Days  
Heating Degree Days 51    
Moisture  
Dew Point 3 °F    
Average Humidity 65    
Maximum Humidity 95    
Minimum Humidity 35    
Precipitation  
Precipitation 0.00 in - - ()
Sea Level Pressure  
Sea Level Pressure 30.15 in    
Wind  
Wind Speed 2 mph (North)    
Max Wind Speed 8 mph    
Max Gust Speed -    
Visibility 10 miles    
Events      
Averages and records for this station are not official NWS values.
T = Trace of Precipitation, MM = Missing Value Source: NWS Daily Summary

Daily Weather History Graph

Daily Weather History Graph

Search for Another Location

Airport:

Trip Planner

Search our weather history database for the weather conditions in past years. The results will help you decide how hot, cold, wet, or windy it might be!

Date:

Astronomy

Mar. 03, 2013 Rise Set
Actual Time 6:27 AM CST 5:42 PM CST
Civil Twilight 5:57 AM CST 6:12 PM CST
Nautical Twilight 5:22 AM CST 6:46 PM CST
Astronomical Twilight 4:48 AM CST 7:21 PM CST
Moon No Moon Rise 9:21 AM CST (3/3)
Length of Visible Light 12h 14m
Length of Day
11h 15m
Waning Gibbous, 63% of the Moon is Illuminated
Mar 3
Waning Gibbous
Mar 4
Last Quarter
Mar 11
New
Mar 19
First Quarter
Mar 27
Full

Hourly Weather History & Observations

Time (CST) Temp. Windchill Dew Point Humidity Pressure Visibility Wind Dir Wind Speed Gust Speed Precip Events Conditions
12:54 AM 1.0 °F - -0.0 °F 95% 30.19 in 10.0 mi Calm Calm - N/A   Clear
1:54 AM 1.9 °F - -0.9 °F 88% 30.17 in 10.0 mi Calm Calm - N/A   Partly Cloudy
3:54 AM -0.0 °F - -4.0 °F 83% 30.16 in 10.0 mi Calm Calm - N/A   Clear
4:54 AM -2.9 °F - -6.0 °F 87% 30.17 in 10.0 mi Calm Calm - N/A   Clear
5:54 AM 1.9 °F - -4.0 °F 76% 30.19 in 10.0 mi Calm Calm - N/A   Clear
6:54 AM -0.0 °F - -4.0 °F 83% 30.19 in 10.0 mi Calm Calm - N/A   Clear
7:54 AM 3.9 °F -3.4 °F -0.9 °F 80% 30.19 in 10.0 mi NNW 3.5 mph - N/A   Clear
8:54 AM 12.9 °F 5.2 °F 6.1 °F 74% 30.17 in 10.0 mi North 4.6 mph - N/A   Clear
9:54 AM 19.9 °F 14.9 °F 8.1 °F 60% 30.17 in 10.0 mi Variable 3.5 mph - N/A   Clear
10:54 AM 21.9 °F 12.5 °F 6.1 °F 51% 30.16 in 10.0 mi North 8.1 mph - N/A   Clear
11:54 AM 25.0 °F 16.3 °F 6.1 °F 45% 30.13 in 10.0 mi North 8.1 mph - N/A   Clear
12:54 PM 27.0 °F 23.0 °F 6.1 °F 41% 30.12 in 10.0 mi North 3.5 mph - N/A   Clear
1:54 PM 28.9 °F 25.2 °F 6.1 °F 38% 30.10 in 10.0 mi NNW 3.5 mph - N/A   Clear
2:54 PM 30.0 °F 25.2 °F 6.1 °F 36% 30.10 in 10.0 mi NNE 4.6 mph - N/A   Clear
3:54 PM 30.0 °F 25.2 °F 5.0 °F 35% 30.10 in 10.0 mi NNW 4.6 mph - N/A   Clear
4:54 PM 28.0 °F 24.2 °F 5.0 °F 38% 30.10 in 10.0 mi North 3.5 mph - N/A   Clear
5:54 PM 21.9 °F - 3.0 °F 44% 30.11 in 10.0 mi Calm Calm - N/A   Clear
6:54 PM 18.0 °F 11.1 °F 6.1 °F 60% 30.12 in 10.0 mi ENE 4.6 mph - N/A   Clear
7:54 PM 19.9 °F 13.4 °F 8.1 °F 60% 30.14 in 10.0 mi ENE 4.6 mph - N/A   Clear
9:54 PM 8.1 °F - 3.9 °F 83% 30.16 in 10.0 mi Calm Calm - N/A   Clear
10:54 PM 6.1 °F - 1.9 °F 83% 30.15 in 10.0 mi Calm Calm - N/A   Clear
11:54 PM 3.0 °F - -0.9 °F 84% 30.16 in 10.0 mi Calm Calm - N/A   Clear